2016-07-05 00:00:26 r, 18.75m,0000000003Hz,0000164221c,0000000.356s, 034.1C,00002195
2016-07-05 00:10:24 r, 18.77m,0000000003Hz,0000167796c,0000000.364s, 034.1C,00002195
2016-07-05 00:20:24 r, 18.78m,0000000003Hz,0000168078c,0000000.365s, 034.1C,00002195
2016-07-05 00:30:24 r, 18.81m,0000000003Hz,0000173005c,0000000.375s, 034.1C,00002195
2016-07-05 00:40:24 r, 18.00m,0000000005Hz,0000082454c,0000000.179s, 034.1C,00002195
2016-07-05 00:50:24 r, 18.50m,0000000004Hz,0000130546c,0000000.283s, 034.1C,00002195
2016-07-05 01:00:25 r, 18.37m,0000000004Hz,0000115796c,0000000.251s, 034.1C,00002195
2016-07-05 01:10:24 r, 18.75m,0000000003Hz,0000164103c,0000000.356s, 034.1C,00002195
2016-07-05 01:20:24 r, 18.78m,0000000003Hz,0000167947c,0000000.364s, 034.1C,00002195
2016-07-05 01:30:24 r, 18.78m,0000000003Hz,0000169752c,0000000.368s, 034.1C,00002195
2016-07-05 01:40:24 r, 18.78m,0000000003Hz,0000169869c,0000000.369s, 034.1C,00002195
2016-07-05 01:50:24 r, 18.78m,0000000003Hz,0000169040c,0000000.367s, 033.8C,00002195
2016-07-05 02:00:24 r, 18.79m,0000000002Hz,0000170547c,0000000.370s, 033.8C,00002195
2016-07-05 02:10:24 r, 18.79m,0000000003Hz,0000170836c,0000000.371s, 033.5C,00002195
2016-07-05 02:20:24 r, 18.78m,0000000002Hz,0000169766c,0000000.368s, 033.5C,00002195
2016-07-05 02:30:24 r, 18.78m,0000000003Hz,0000168071c,0000000.365s, 033.5C,00002195
2016-07-05 02:40:24 r, 18.76m,0000000002Hz,0000166279c,0000000.361s, 033.5C,00002195
2016-07-05 02:50:24 r, 18.74m,0000000003Hz,0000163189c,0000000.354s, 033.1C,00002195
2016-07-05 03:00:25 r, 18.74m,0000000003Hz,0000162274c,0000000.352s, 033.1C,00002195
2016-07-05 03:10:24 r, 18.72m,0000000003Hz,0000159339c,0000000.346s, 032.8C,00002195
2016-07-05 03:20:24 r, 18.67m,0000000003Hz,0000152642c,0000000.331s, 032.8C,00002195
2016-07-05 03:30:24 r, 18.61m,0000000003Hz,0000143973c,0000000.312s, 032.8C,00002195
2016-07-05 03:40:24 r, 18.48m,0000000004Hz,0000127359c,0000000.276s, 032.5C,00002195
2016-07-05 03:50:24 r, 18.22m,0000000004Hz,0000100850c,0000000.219s, 032.5C,00002195
2016-07-05 04:00:24 r, 17.83m,0000000007Hz,0000070348c,0000000.153s, 032.5C,00002195
2016-07-05 04:10:24 r, 17.17m,0000000011Hz,0000038576c,0000000.084s, 032.5C,00002195
2016-07-05 04:20:24 r, 16.32m,0000000026Hz,0000017603c,0000000.038s, 032.2C,00002195
2016-07-05 04:30:24 r, 15.29m,0000000067Hz,0000006847c,0000000.015s, 032.2C,00002195
2016-07-05 04:40:25 r, 13.84m,0000000259Hz,0000000000c,0000000.000s, 032.2C,00002195
2016-07-05 04:50:24 r, 12.37m,0000001002Hz,0000000000c,0000000.000s, 032.2C,00002195
2016-07-05 05:00:25 r, 10.92m,0000003832Hz,0000000000c,0000000.000s, 032.2C,00002195
2016-07-05 05:10:24 r, 09.42m,0000015148Hz,0000000000c,0000000.000s, 032.2C,00002195
2016-07-05 05:20:24 r, 08.05m,0000053973Hz,0000000000c,0000000.000s, 032.2C,00002195
2016-07-05 05:30:24 r, 07.51m,0000088087Hz,0000000000c,0000000.000s, 031.9C,00002195
2016-07-05 05:40:25 r, 06.59m,0000205094Hz,0000000000c,0000000.000s, 031.9C,00002195
2016-07-05 05:50:24 r, 06.32m,0000264133Hz,0000000000c,0000000.000s, 031.9C,00002195
2016-07-05 06:00:26 r, 00.00m,0000564564Hz,0000000000c,0000000.000s, 032.2C,00002195
2016-07-05 06:10:24 r, 00.00m,0000564597Hz,0000000000c,0000000.000s, 032.5C,00002195
2016-07-05 06:20:24 r, 00.00m,0000564718Hz,0000000000c,0000000.000s, 033.1C,00002195
2016-07-05 06:30:24 r, 00.00m,0000564707Hz,0000000000c,0000000.000s, 033.1C,00002195
2016-07-05 06:40:25 r, 00.00m,0000564659Hz,0000000000c,0000000.000s, 033.5C,00002195
2016-07-05 06:50:24 r, 00.00m,0000564703Hz,0000000000c,0000000.000s, 033.8C,00002195
2016-07-05 07:00:25 r, 00.00m,0000564785Hz,0000000000c,0000000.000s, 034.1C,00002195
2016-07-05 07:10:24 r, 00.00m,0000564798Hz,0000000000c,0000000.000s, 034.1C,00002195
2016-07-05 07:20:24 r, 00.00m,0000564820Hz,0000000000c,0000000.000s, 034.4C,00002195
2016-07-05 07:30:24 r, 00.00m,0000564815Hz,0000000000c,0000000.000s, 034.4C,00002195
2016-07-05 07:40:26 r, 00.00m,0000564857Hz,0000000000c,0000000.000s, 034.8C,00002195
2016-07-05 07:50:25 r, 00.00m,0000564954Hz,0000000000c,0000000.000s, 035.4C,00002195
2016-07-05 08:00:24 r, 00.00m,0000564904Hz,0000000000c,0000000.000s, 035.7C,00002195
2016-07-05 08:10:24 r, 00.00m,0000564980Hz,0000000000c,0000000.000s, 036.0C,00002195
2016-07-05 08:20:25 r, 00.00m,0000565089Hz,0000000000c,0000000.000s, 037.3C,00002195
2016-07-05 08:30:26 r, 00.00m,0000565158Hz,0000000000c,0000000.000s, 038.3C,00002195
2016-07-05 08:40:25 r, 00.00m,0000565183Hz,0000000000c,0000000.000s, 038.6C,00002195
2016-07-05 08:50:24 r, 00.00m,0000565307Hz,0000000000c,0000000.000s, 039.3C,00002195
2016-07-05 09:00:25 r, 00.00m,0000565263Hz,0000000000c,0000000.000s, 039.6C,00002195
2016-07-05 09:10:24 r, 00.00m,0000565233Hz,0000000000c,0000000.000s, 039.3C,00002195
2016-07-05 09:20:25 r, 00.00m,0000565343Hz,0000000000c,0000000.000s, 039.6C,00002195
2016-07-05 09:30:24 r, 00.00m,0000565303Hz,0000000000c,0000000.000s, 039.6C,00002195
2016-07-05 09:40:25 r, 00.00m,0000565272Hz,0000000000c,0000000.000s, 039.6C,00002195
2016-07-05 09:50:24 r, 00.00m,0000565248Hz,0000000000c,0000000.000s, 039.9C,00002195
2016-07-05 10:00:24 r, 00.00m,0000565279Hz,0000000000c,0000000.000s, 039.6C,00002195
2016-07-05 10:10:24 r, 00.00m,0000565238Hz,0000000000c,0000000.000s, 039.0C,00002195
2016-07-05 10:20:25 r, 00.00m,0000565203Hz,0000000000c,0000000.000s, 039.0C,00002195
2016-07-05 10:30:24 r, 00.00m,0000565222Hz,0000000000c,0000000.000s, 039.0C,00002195
2016-07-05 10:40:24 r, 00.00m,0000565219Hz,0000000000c,0000000.000s, 039.0C,00002195
2016-07-05 10:50:26 r, 00.00m,0000565199Hz,0000000000c,0000000.000s, 039.0C,00002195
2016-07-05 11:00:24 r, 00.00m,0000565227Hz,0000000000c,0000000.000s, 039.9C,00002195
2016-07-05 11:10:25 r, 00.00m,0000565354Hz,0000000000c,0000000.000s, 039.9C,00002195
2016-07-05 11:20:25 r, 00.00m,0000565237Hz,0000000000c,0000000.000s, 039.3C,00002195
2016-07-05 11:30:25 r, 00.00m,0000565276Hz,0000000000c,0000000.000s, 039.3C,00002195
2016-07-05 11:40:27 r, 00.00m,0000565208Hz,0000000000c,0000000.000s, 039.6C,00002195
2016-07-05 11:50:25 r, 00.00m,0000565284Hz,0000000000c,0000000.000s, 039.9C,00002195
2016-07-05 12:00:24 r, 00.00m,0000565329Hz,0000000000c,0000000.000s, 040.2C,00002195
2016-07-05 12:10:25 r, 00.00m,0000565337Hz,0000000000c,0000000.000s, 039.9C,00002195
2016-07-05 12:20:25 r, 00.00m,0000565333Hz,0000000000c,0000000.000s, 039.6C,00002195
2016-07-05 12:30:24 r, 00.00m,0000565343Hz,0000000000c,0000000.000s, 040.2C,00002195
2016-07-05 12:40:24 r, 00.00m,0000565490Hz,0000000000c,0000000.000s, 041.2C,00002195
2016-07-05 12:50:24 r, 00.00m,0000565639Hz,0000000000c,0000000.000s, 043.1C,00002195
2016-07-05 13:00:24 r, 00.00m,0000565755Hz,0000000000c,0000000.000s, 043.8C,00002195
2016-07-05 13:10:24 r, 00.00m,0000565680Hz,0000000000c,0000000.000s, 043.5C,00002195
2016-07-05 13:20:24 r, 00.00m,0000565650Hz,0000000000c,0000000.000s, 043.8C,00002195
2016-07-05 13:30:24 r, 00.00m,0000565607Hz,0000000000c,0000000.000s, 043.5C,00002195
2016-07-05 13:40:25 r, 00.00m,0000565659Hz,0000000000c,0000000.000s, 043.5C,00002195
2016-07-05 13:50:25 r, 00.00m,0000565529Hz,0000000000c,0000000.000s, 042.8C,00002195
2016-07-05 14:00:24 r, 00.00m,0000565580Hz,0000000000c,0000000.000s, 043.8C,00002195
2016-07-05 14:10:24 r, 00.00m,0000565636Hz,0000000000c,0000000.000s, 044.1C,00002195
2016-07-05 14:20:26 r, 00.00m,0000565841Hz,0000000000c,0000000.000s, 046.0C,00002195
2016-07-05 14:30:24 r, 00.00m,0000565941Hz,0000000000c,0000000.000s, 047.3C,00002195
2016-07-05 14:40:25 r, 00.00m,0000566105Hz,0000000000c,0000000.000s, 050.2C,00002195
2016-07-05 14:50:26 r, 00.00m,0000566255Hz,0000000000c,0000000.000s, 052.2C,00002195
2016-07-05 15:00:24 r, 00.00m,0000566355Hz,0000000000c,0000000.000s, 054.1C,00002195
2016-07-05 15:10:26 r, 00.00m,0000566412Hz,0000000000c,0000000.000s, 055.1C,00002195
2016-07-05 15:20:24 r, 00.00m,0000566401Hz,0000000000c,0000000.000s, 055.7C,00002195
2016-07-05 15:30:24 r, 00.00m,0000566384Hz,0000000000c,0000000.000s, 055.7C,00002195
2016-07-05 15:40:26 r, 00.00m,0000566359Hz,0000000000c,0000000.000s, 055.7C,00002195
2016-07-05 15:50:24 r, 00.00m,0000566249Hz,0000000000c,0000000.000s, 055.7C,00002195
2016-07-05 16:00:24 r, 00.00m,0000566282Hz,0000000000c,0000000.000s, 055.7C,00002195
2016-07-05 16:10:27 r, 00.00m,0000566305Hz,0000000000c,0000000.000s, 055.4C,00002195
2016-07-05 16:20:25 r, 00.00m,0000566206Hz,0000000000c,0000000.000s, 055.4C,00002195
2016-07-05 16:30:24 r, 00.00m,0000566147Hz,0000000000c,0000000.000s, 055.1C,00002195
2016-07-05 16:40:27 r, 00.00m,0000566189Hz,0000000000c,0000000.000s, 055.1C,00002195
2016-07-05 16:50:25 r, 00.00m,0000566158Hz,0000000000c,0000000.000s, 054.7C,00002195
2016-07-05 17:00:25 r, 00.00m,0000566148Hz,0000000000c,0000000.000s, 054.4C,00002195
2016-07-05 17:10:26 r, 00.00m,0000566151Hz,0000000000c,0000000.000s, 054.1C,00002195
2016-07-05 17:20:24 r, 00.00m,0000566007Hz,0000000000c,0000000.000s, 052.8C,00002195
2016-07-05 17:30:24 r, 00.00m,0000565958Hz,0000000000c,0000000.000s, 052.2C,00002195
2016-07-05 17:40:25 r, 00.00m,0000565806Hz,0000000000c,0000000.000s, 050.6C,00002195
2016-07-05 17:50:25 r, 00.00m,0000565877Hz,0000000000c,0000000.000s, 051.5C,00002195
2016-07-05 18:00:24 r, 00.00m,0000565725Hz,0000000000c,0000000.000s, 049.9C,00002195
2016-07-05 18:10:24 r, 00.00m,0000565435Hz,0000000000c,0000000.000s, 046.7C,00002195
2016-07-05 18:20:25 r, 00.00m,0000565333Hz,0000000000c,0000000.000s, 044.1C,00002195
2016-07-05 18:30:24 r, 00.00m,0000565124Hz,0000000000c,0000000.000s, 042.5C,00002195
2016-07-05 18:40:24 r, 00.00m,0000567648Hz,0000000000c,0000000.000s, 041.2C,00002195
2016-07-05 18:50:24 r, 00.00m,0000565005Hz,0000000000c,0000000.000s, 039.9C,00002195
2016-07-05 19:00:24 r, 00.00m,0000564945Hz,0000000000c,0000000.000s, 039.3C,00002195
2016-07-05 19:10:25 r, 00.00m,0000564923Hz,0000000000c,0000000.000s, 038.3C,00002195
2016-07-05 19:20:25 r, 00.00m,0000564858Hz,0000000000c,0000000.000s, 038.0C,00002195
2016-07-05 19:30:24 r, 00.00m,0000564941Hz,0000000000c,0000000.000s, 039.3C,00002195
2016-07-05 19:40:24 r, 00.00m,0000565049Hz,0000000000c,0000000.000s, 039.6C,00002195
2016-07-05 19:50:27 r, 00.00m,0000565076Hz,0000000000c,0000000.000s, 039.9C,00002195
2016-07-05 20:00:24 r, 00.00m,0000564990Hz,0000000000c,0000000.000s, 039.6C,00002195
2016-07-05 20:10:24 r, 05.89m,0000393153Hz,0000000000c,0000000.000s, 039.0C,00002195
2016-07-05 20:20:24 r, 00.00m,0000564909Hz,0000000000c,0000000.000s, 039.0C,00002195
2016-07-05 20:30:24 r, 00.00m,0000565013Hz,0000000000c,0000000.000s, 039.3C,00002195
2016-07-05 20:40:24 r, 00.00m,0000564908Hz,0000000000c,0000000.000s, 038.6C,00002195
2016-07-05 20:50:25 r, 00.00m,0000564783Hz,0000000000c,0000000.000s, 038.0C,00002195
2016-07-05 21:00:24 r, 05.87m,0000397762Hz,0000000000c,0000000.000s, 037.3C,00002195
2016-07-05 21:10:25 r, 06.25m,0000282175Hz,0000000000c,0000000.000s, 037.0C,00002195
2016-07-05 21:20:25 r, 06.66m,0000192040Hz,0000000000c,0000000.000s, 036.4C,00002195
2016-07-05 21:30:24 r, 07.20m,0000117405Hz,0000000000c,0000000.000s, 035.7C,00002195
2016-07-05 21:40:24 r, 07.93m,0000059764Hz,0000000000c,0000000.000s, 035.7C,00002195
2016-07-05 21:50:25 r, 08.93m,0000023688Hz,0000000000c,0000000.000s, 035.4C,00002195
2016-07-05 22:00:24 r, 10.19m,0000007461Hz,0000000000c,0000000.000s, 035.1C,00002195
2016-07-05 22:10:24 r, 11.61m,0000002019Hz,0000000000c,0000000.000s, 035.1C,00002195
2016-07-05 22:20:27 r, 13.10m,0000000513Hz,0000000000c,0000000.000s, 034.8C,00002195
2016-07-05 22:30:24 r, 14.60m,0000000127Hz,0000003612c,0000000.008s, 034.4C,00002195
2016-07-05 22:40:25 r, 15.92m,0000000038Hz,0000012223c,0000000.027s, 034.4C,00002195
2016-07-05 22:50:25 r, 16.86m,0000000016Hz,0000028774c,0000000.062s, 034.1C,00002195
2016-07-05 23:00:24 r, 17.56m,0000000008Hz,0000054914c,0000000.119s, 033.8C,00002195
2016-07-05 23:10:24 r, 18.05m,0000000005Hz,0000086349c,0000000.187s, 033.5C,00002195
2016-07-05 23:20:25 r, 18.37m,0000000004Hz,0000115081c,0000000.250s, 033.5C,00002195
2016-07-05 23:30:24 r, 18.53m,0000000003Hz,0000134400c,0000000.292s, 033.1C,00002195
2016-07-05 23:40:24 r, 18.64m,0000000003Hz,0000147806c,0000000.321s, 033.1C,00002195
2016-07-05 23:50:27 r, 18.68m,0000000003Hz,0000154519c,0000000.335s, 033.1C,00002195
